Showing default

QIANFAN-65, 62795

Orbit data source: Space-Track

QIANFAN-65, 62795 is a Chinese payload satellite in LEO that was launched on Thu, 23 Jan 2025 UTC via a CHANG ZHENG 6A launch vehicle from the Taiyaun Space Center, China (TSC). Payload-class satellites include a variety of spacecraft equipped with specific instruments for various scientific and technological missions. These include communications satellites like Starlink; space stations such as the ISS; scientific satellites like the Hubble; Earth observation satellites from companies like Planet Labs, Umbra, and HawkEye 360; GPS; miniature CubeSats for education and research; and military/defense satellites.

Loading next visibility...
Identifier
62795, 2025-016L
Orbit
LEO
Country
Flag of CNCN / PRC
Related business
Manufacturer
SECM
Mission
Operational Commercial Communications
Bus & Motor
QIANFAN, Unknown motor
Mass
267 kg wet, ~267 kg dry
Launch date (UTC)
2025-01-23 (11 months ago)
Launch vehicle
CHANG ZHENG 6A
Launch site
Taiyaun Space Center, China (TSC)
Object type
Payload
Rocket body
Debris
Shape & HBR
Box + 1 Pan, 1.6 m
Radar Cross Section
13.200 m², Large (>1 m²)

Expand to show TLE details & history
Last TLE update: 8 hours ago

TLE from 8 hours ago
0 QIANFAN-65
1 62795U 25016L   25352.58157928  .00000141  00000-0  19950-3 0  9998
2 62795  88.9766 102.4556 0012627 331.3558  28.6898 13.50985968 48034
Epoch: 2025-12-18T13:57Z
TLE epoch observation values (Epoch: 2025-12-18T13:57:28.449Z)
Latitude
-0.00006°
Longitude
165.65203°
Altitude
1,063.339 km
Speed
7.324 km/s
True Right ascension
06h 49m 49s
True Declination
0° 00' 00"
Sunlit
Object was in full shadow at epoch
Visualization orbit readout
Latitude
Unknown
Longitude
Unknown
Altitude
Unknown
Speed
Unknown
Apparent Right ascension
Unknown
Apparent Declination
Unknown
Sunlit
N/A
Visualization observer readout
Local Sidereal Time
20:58:41
Azimuth
Unknown
Elevation
Unknown
Doppler factor
Unknown
Orbital elements
Apogee altitude
1,075.084 km
Perigee altitude
1,056.285 km
Semi-major axis
7,443.821 km
Eccentricity
0.00126
Inclination
88.9766°
RAAN
102.4556°
Arg. of periapsis
331.3558°
True anomaly
28.75936°
Mean anomaly
28.6898°
Eccentric anomaly
28.72457°
Mean motion
3.37948 °/min
Orbital period
106.53 mins
BSTAR
0.0001995
Loading maneuver chart data...
Computing Atmospheric mass density...
Loading historical data...
Loading historical data...
Loading historical data...
Loading historical data...
Loading historical data...
Loading historical data...
Loading historical data...

Documentation

Showing up to 5 results
|